This demonstration page uses our WeatherBlox Daily Observations layout. Learn more.

Left ArrowRight Arrow

Hourly Observations for April 30, 2017

Temp ( °F °C ) Dew Point ( °F °C ) Humidity (%) Winds ( mph kmh ) Pressure ( in mb ) Visibility ( mi km ) Precip ( " mm )
12:06 am 00:06 Mostly Cloudy with Light Rain 41 5 37 3 87 87 NNE 13 20 29.97 1015 7 11 0.00 0.00
12:46 am 00:46 Partly Cloudy with Light Rain 41 5 37 3 87 87 NNE 15 24 29.97 1015 5 8 0.00 0.00
12:56 am 00:56 Mostly Cloudy with Light Rain 40 4.5 38 3.2 91 91 NNE 10 17 29.97 1015 6 10 0.01 0.25
1:35 am 01:35 Cloudy with Light Rain 39 4 37 3 93 93 NNE 14 22 29.94 1014 5 8 0.00 0.00
1:56 am 01:56 Mostly Cloudy with Light Rain 40 4.3 38 3.1 92 92 NNE 13 20 29.92 1013 6 10 0.06 1.52
2:26 am 02:26 Mostly Cloudy with Light Rain 39 4 37 3 93 93 NNE 12 19 29.92 1013 5 8 0.00 0.00
2:56 am 02:56 Mostly Cloudy with Light Rain 40 4.3 37 3 91 91 N 13 20 29.92 1013 6 10 0.03 0.76
3:16 am 03:16 Mostly Clear with Light Rain 39 4 37 3 93 93 N 8 13 29.93 1014 8 13 0.00 0.00
3:56 am 03:56 Partly Cloudy with Light Rain 40 4.4 38 3.1 91 91 NNE 14 22 29.90 1013 8 13 0.00 0.03
4:26 am 04:26 Mostly Cloudy with Light Rain 39 4 37 3 93 93 NNE 13 20 29.88 1012 9 14 0.00 0.00
4:56 am 04:56 Partly Cloudy with Light Rain 40 4.3 37 3 91 91 NNE 16 26 29.86 1011 7 11 0.03 0.76
5:16 am 05:16 Mostly Cloudy with Light Rain 39 4 37 3 93 93 NE 15 24 29.84 1011 5 8 0.00 0.00
5:26 am 05:26 Partly Cloudy with Light Rain 39 4 37 3 93 93 NNE 18 30 29.83 1010 9 14 0.00 0.00
5:41 am 05:41 Partly Cloudy 39 4 37 3 93 93 NNE 15 24 29.80 1009 10 16 0.00 0.00
5:51 am 05:51 Mostly Cloudy 39 4 37 3 93 93 NNE 22 35 29.78 1008 10 16 0.00 0.00
5:56 am 05:56 Mostly Cloudy 39 4.1 37 2.6 90 90 NNE 17 28 29.78 1008 10 16 0.02 0.51
6:01 am 06:01 Cloudy with Light Rain 39 4 37 3 93 93 N 17 28 29.76 1008 9 14 0.00 0.00
6:11 am 06:11 Cloudy with Light Rain 39 4 37 3 93 93 NNE 14 22 29.77 1008 8 13 0.00 0.00
6:30 am 06:30 Mostly Cloudy with Mist and Fog 39 4 37 3 93 93 NNE 12 19 29.77 1008 6 10 0.00 0.00
6:50 am 06:50 Mostly Cloudy with Light Rain 39 4 36 2 87 87 NNE 15 24 29.78 1008 9 14 0.00 0.00
6:56 am 06:56 Cloudy with Light Rain 39 4 36 2.4 89 89 NNE 10 17 29.78 1008 7 11 0.01 0.25
7:56 am 07:56 Mostly Cloudy with Light Rain 39 4 37 2.5 90 90 NNE 15 24 29.76 1008 6 10 0.01 0.25
8:06 am 08:06 Partly Cloudy with Light Rain 39 4 37 3 93 93 NE 16 26 29.77 1008 5 8 0.00 0.00
8:26 am 08:26 Mostly Cloudy with Light Rain 39 4 37 3 93 93 NE 13 20 29.79 1009 7 11 0.00 0.00
8:46 am 08:46 Cloudy with Rain 39 4 37 3 93 93 NE 15 24 29.76 1008 2 4 0.00 0.00
8:56 am 08:56 Cloudy with Light Rain 39 4.1 37 2.9 92 92 NE 10 17 29.77 1008 4 6 0.07 1.78
9:06 am 09:06 Cloudy with Heavy Rain 39 4 37 3 93 93 NNE 16 26 29.75 1007 3 4 0.00 0.00
9:16 am 09:16 Cloudy with Heavy Rain 39 4 37 3 93 93 NE 13 20 29.73 1007 3 5 0.00 0.00
9:53 am 09:53 Cloudy 41 5 37 3 87 87 NNE 16 26 29.71 1006 10 16 0.00 0.00
9:56 am 09:56 Cloudy 41 4.8 38 3.3 90 90 NE 17 28 29.71 1006 10 16 0.12 3.05
10:56 am 10:56 Cloudy 41 5.2 38 3.2 87 87 NNE 15 24 29.67 1005 10 16 0.00 0.00
11:33 am 11:33 Cloudy with Light Rain 43 6 39 4 87 87 NNE 23 37 29.61 1003 10 16 0.00 0.00
11:56 am 11:56 Cloudy with Light Rain 42 5.4 39 3.7 89 89 NNE 21 33 29.60 1002 9 14 0.02 0.51
12:26 pm 12:26 Cloudy with Light Rain 43 6 39 4 87 87 NE 17 28 29.55 1001 10 16 0.00 0.00
12:56 pm 12:56 Cloudy with Light Rain 43 6 40 4.5 90 90 NNE 23 37 29.52 1000 3 5 0.04 1.02
1:06 pm 13:06 Cloudy with Heavy Rain 43 6 41 5 93 93 NE 18 30 29.52 1000 3 4 0.00 0.00
1:26 pm 13:26 Cloudy with Heavy Rain 43 6 41 5 93 93 ENE 10 17 29.56 1001 3 5 0.00 0.00
1:36 pm 13:36 Cloudy with Rain 43 6 41 5 93 93 ENE 14 22 29.57 1001 2 4 0.00 0.00
1:53 pm 13:53 Cloudy with Rain 43 6 41 5 93 93 ENE 7 11 29.61 1003 5 8 0.00 0.00
1:56 pm 13:56 Cloudy with Rain 44 6.4 42 5.3 93 93 NE 7 11 29.61 1003 2 3 0.17 4.32
2:06 pm 14:06 Cloudy with Light Rain 45 7 43 6 93 93 NE 6 9 29.60 1002 3 4 0.00 0.00
2:56 pm 14:56 Cloudy with Heavy Rain 44 6.6 42 5.7 94 94 N 5 7 29.60 1003 3 5 0.09 2.29
3:56 pm 15:56 Cloudy with Light Rain 44 6.4 42 5.3 93 93 N 12 19 29.60 1002 7 11 0.04 1.02
4:16 pm 16:16 Cloudy with Light Rain 43 6 41 5 93 93 N 16 26 29.54 1000 7 11 0.00 0.00
4:47 pm 16:47 Cloudy with Light Rain 43 6 41 5 93 93 N 12 19 29.54 1000 10 16 0.00 0.00
4:56 pm 16:56 Mostly Cloudy with Light Rain 43 6.1 40 4.7 91 91 N 8 13 29.55 1001 10 16 0.04 1.02
5:06 pm 17:06 Mostly Cloudy with Light Rain 43 6 41 5 93 93 N 12 19 29.56 1001 10 16 0.00 0.00
5:09 pm 17:09 Mostly Cloudy 43 6 41 5 93 93 NNE 10 17 29.56 1001 10 16 0.00 0.00
5:29 pm 17:29 Mostly Cloudy 45 7 41 5 87 87 NNE 10 17 29.55 1001 10 16 0.00 0.00
5:39 pm 17:39 Partly Cloudy 45 7 41 5 87 87 N 10 17 29.55 1001 10 16 0.00 0.00
5:56 pm 17:56 Mostly Sunny 44 6.5 40 4.7 88 88 N 8 13 29.54 1000 10 16 0.00 0.03
6:36 pm 18:36 Mostly Cloudy 45 7 41 5 87 87 N 14 22 29.54 1000 10 16 0.00 0.00
6:46 pm 18:46 Partly Cloudy 45 7 41 5 87 87 NNE 12 19 29.54 1000 9 14 0.00 0.00
6:56 pm 18:56 Mostly Cloudy 44 6.5 41 4.8 89 89 NNE 10 17 29.54 1000 9 14 0.00 0.00
7:06 pm 19:06 Mostly Cloudy 45 7 41 5 87 87 N 8 13 29.52 1000 10 16 0.00 0.00
7:26 pm 19:26 Mostly Cloudy 45 7 41 5 87 87 NNE 9 15 29.54 1000 10 16 0.00 0.00
7:56 pm 19:56 Mostly Cloudy 44 6.5 40 4.3 86 86 NNE 10 17 29.54 1000 10 16 0.00 0.00
8:14 pm 20:14 Mostly Cloudy with Light Rain 43 6 41 5 93 93 NNE 13 20 29.53 1000 8 13 0.00 0.00
8:30 pm 20:30 Mostly Cloudy 43 6 41 5 93 93 NNE 14 22 29.52 1000 7 11 0.00 0.00
8:56 pm 20:56 Mostly Cloudy 43 5.9 40 4.5 91 91 NNE 12 19 29.52 1000 10 16 0.00 0.03
9:56 pm 21:56 Cloudy 43 6.1 40 4.4 89 89 NNE 8 13 29.52 1000 10 16 0.00 0.00
10:16 pm 22:16 Cloudy 43 6 39 4 87 87 NNE 8 13 29.51 999 10 16 0.00 0.00
10:56 pm 22:56 Cloudy 43 6.1 40 4.4 89 89 N 8 13 29.47 998 10 16 0.00 0.00
11:05 pm 23:05 Cloudy 43 6 39 4 87 87 N 8 13 29.47 998 10 16 0.00 0.00
11:45 pm 23:45 Cloudy 43 6 39 4 87 87 NNW 7 11 29.47 998 10 16 0.00 0.00
11:46 pm 23:46 Cloudy with Light Rain 43 6 39 4 87 87 N 8 13 29.47 998 10 16 0.00 0.00
11:56 pm 23:56 Cloudy with Light Rain 42 5.6 40 4.4 92 92 N 7 11 29.47 998 8 13 0.00 0.03

Powered by AerisWeather